Terminal Aerodrome Forecast
Issued by NWS

Home | Current Version | Previous Version | Text Only | Print | Product List | Glossary On
Versions: 1 2 3 4 5 6 7 8 9 10 11 12 13 14 15 16 17 18 19 20 21 22 23 24 25 26 27 28 29 30 31 32
000
FTUS45 KTWC 202100 AAA
TAFOLS
TAF AMD
KOLS 202154Z 2022/2118 23005KT P6SM VCTS SCT050CB BKN080
      TEMPO 2022/2024 VRB15G25KT 3SM TSRA SCT030CB BKN050
     FM210400 VRB03KT P6SM SCT110=

USA.gov is the U.S. government's official web portal to all federal, state and local government web resources and services.